Regional Weather Roundup
Issued by NWS

Home | Current Version | Previous Version | Graphics & Text | Print | Product List | Glossary On
Versions: 1 2 3 4 5 6 7 8 9 10 11 12 13 14 15 16 17 18 19 20 21 22 23 24 25 26 27 28 29 30 31 32 33 34 35 36 37 38 39 40 41 42 43 44 45 46 47 48 49 50
000
ASUS43 KMKX 201921
RWRWI

WISCONSIN REGIONAL WEATHER ROUNDUP
NATIONAL WEATHER SERVICE MILWAUKEE/SULLIVAN WI
100 PM CST FRI JAN 20 2017

NOTE: "FAIR" INDICATES FEW OR NO CLOUDS BELOW 12,000 FEET WITH NO
SIGNIFICANT WEATHER AND/OR OBSTRUCTIONS TO VISIBILITY.

WIZ001-002-006>008-014>016-023>028-202000-
NORTHWEST WISCONSIN

CITY           SKY/WX    TMP DP  RH WIND       PRES   REMARKS
SUPERIOR ARPT  DRIZZLE   35  35 100 E9        29.60F WCI  27
ASHLAND        CLOUDY    35  33  92 NE6       29.63F FOG     WCI  30
HAYWARD        LGT RAIN  38  35  89 E3        29.58F FOG
SIREN          CLOUDY    36  35  94 S7        29.59F WCI  31
CUMBERLAND     CLOUDY    34  32  93 S7        29.58F FOG     WCI  28
RICE LAKE      CLOUDY    35  35  98 SE6       29.60F FOG     WCI  30
CHETEK         CLOUDY    35  35  98 SE9       29.59F FOG     WCI  28
LADYSMITH      LGT RAIN  38  37  97 SE5       29.61S WCI  34
EAU CLAIRE     CLOUDY    36  35  96 SE6       29.59F FOG     WCI  31
MENOMONIE        N/A    N/A N/A N/A MISG        N/A
NEW RICHMOND   FOG       36  35  99 SE5       29.59F VSB 1   WCI  32
OSCEOLA        CLOUDY    37  37 100 SE7       29.61F FOG     WCI  31
$$

WIZ003>005-009-010-017-018-202000-
NORTH CENTRAL WISCONSIN

CITY           SKY/WX    TMP DP  RH WIND       PRES   REMARKS
MANITOWISH WTR DRIZZLE   36  36 100 CALM      29.61F
ARBOR VITAE    DRIZZLE   37  34  92 SE3       29.62F
WOODRUFF       DRIZZLE   37  34  92 SE3       29.62F
RHINELANDER    LGT RAIN  36  35  96 E7        29.63F FOG     WCI  30
EAGLE RIVER    CLOUDY    38  33  82 CALM      29.62F
LAND O LAKES   DRIZZLE   38  33  80 CALM      29.64F
PHILLIPS       DRIZZLE   36  36  97 E6        29.59F WCI  32
TOMAHAWK       RAIN      36  35  96 E3        29.62F
MEDFORD        RAIN      35  34  96 E9        29.59F WCI  28
MERRILL        LGT RAIN  36  36 100 CALM        N/A
$$

WIZ029-030-035-036-043>047-202000-
CENTRAL WISCONSIN

CITY           SKY/WX    TMP DP  RH WIND       PRES   REMARKS
WAUSAU         LGT RAIN  35  34  96 E8        29.61F WCI  29
MOSINEE        LGT RAIN  36  36 100 E6        29.62F WCI  31
MARSHFIELD     CLOUDY    34  33  96 SE10      29.60F FOG     WCI  26
STEVENS POINT  LGT RAIN  33  33 100 E8        29.63F WCI  26
WAUPACA        DRIZZLE   37  35  91 CALM      29.65F
WAUTOMA        CLOUDY    35  34  96 E6        29.64F FOG     WCI  30
WISC RAPIDS    CLOUDY    36  35  96 SE6       29.63F FOG     WCI  31
CAMP DOUGLAS   CLOUDY    36  35  98 E6        29.61F FOG     WCI  31
$$

WIZ011>013-019>022-031-037>040-048>050-202000-
NORTHEAST WISCONSIN

CITY           SKY/WX    TMP DP  RH WIND       PRES   REMARKS
ANTIGO         LGT RAIN  33  33 100 E10       29.63F WCI  25
SHAWANO        LGT RAIN  36  34  95 CALM      29.67F
OCONTO         CLOUDY    34  34  98 NE6       29.68F WCI  29
STURGEON BAY   FOG       34  33  96 NW6       29.69R VSB 1/4 WCI  29
GREEN BAY      CLOUDY    36  35  96 NE9       29.65F FOG     WCI  29
MANITOWOC      LGT RAIN  37  36  93 NE5       29.66F FOG     WCI  34
APPLETON       NOT AVBL
CLINTONVILLE   RAIN      34  34 100 E6        29.65F WCI  29
OSHKOSH        LGT RAIN  35  34  96 NE3       29.64F VSB 3/4
$$

WIZ032>034-041-042-053>061-202000-
SOUTHWEST WISCONSIN

CITY           SKY/WX    TMP DP  RH WIND       PRES   REMARKS
LA CROSSE      CLOUDY    40  36  86 CALM      29.60F FOG
SPARTA         CLOUDY    35  35  99 SE6       29.62F FOG     WCI  30
VIROQUA        CLOUDY    35  35 100 SE7       29.58F VSB 1/2 WCI  30
BOSCOBEL       CLOUDY    40  38  93 NE3       29.61F FOG
PRAIRIE DU CHI CLOUDY    38  37  97 CALM      29.60F FOG
PLATTEVILLE    CLOUDY    38  38 100 SE5       29.60F VSB 1/4 WCI  34
$$

WIZ056-057-062-063-064-067-068-202000-
SOUTH CENTRAL WISCONSIN

CITY           SKY/WX    TMP DP  RH WIND       PRES   REMARKS
REEDSBURG      CLOUDY    36  36 100 E5        29.61F FOG     WCI  32
BARABOO/DELLS  CLOUDY    35  35  99 E6        29.61F FOG     WCI  30
LONE ROCK      FOG       37  36  96 E8        29.62F VSB 3/4 WCI  31
MINERAL POINT  FOG       37  37 100 SE6       29.59F VSB 1/4 WCI  33
MADISON        FOG       37  36  96 E7        29.62F VSB 3/4 WCI  32
MIDDLETON      CLOUDY    38  38 100 E8        29.62S VSB 1/2 WCI  32
WATERTOWN      CLOUDY    37  37 100 SE7       29.63F FOG     WCI  32
MONROE         FOG       36  36 100 E7        29.60F VSB<1/4 WCI  30
JANESVILLE     FOG       39  39 100 E6        29.61F VSB 1   WCI  35
$$

WIZ051-052-058>065-066-070>072-202000-
SOUTHEAST WISCONSIN

CITY           SKY/WX    TMP DP  RH WIND       PRES   REMARKS
MILWAUKEE      FOG       39  37  92 E8        29.65S VSB 3/4 WCI  33
WAUKESHA       FOG       36  36 100 NE7       29.64F VSB 1   WCI  30
MILWAUKEE/TIMM CLOUDY    37  36  93 E6        29.65F FOG     WCI  33
RACINE         FOG       38  36  92 E6        29.66F VSB 1/2 WCI  33
KENOSHA        FOG       38  37  97 SE6       29.65F VSB 1/2 WCI  33
FOND DU LAC    CLOUDY    38  34  85 VRB6      29.64F FOG     WCI  33
SHEBOYGAN      CLOUDY    38  36  92 NE5       29.64F FOG     WCI  34
WEST BEND      CLOUDY    36  36 100 E5        29.64S FOG     WCI  32
JUNEAU         CLOUDY    36  35  96 E9        29.63F FOG     WCI  29
$$

LSZ147-162-202000-
LAKE SUPERIOR

STATION/POSITION TIME  TEMP    WIND        PRES    WAVE
                       AIR SEA DIR/SP/G            HT/PER
                 (UTC) (F)     (DEG/KT/KT) (MB)    (FT/S)
DEVILS ISLAND    1900   34      80/  6/  7 1004.4F
PORT WING        1840   34      30/  8/  9 1003.4F
SAXON HARBOR     1840   34      CALM  /  2 1003.7F
$$

LMZ867-665-643>646-202000-
LAKE MICHIGAN

STATION/POSITION TIME  TEMP    WIND        PRES    WAVE
                       AIR SEA DIR/SP/G            HT/PER
                 (UTC) (F)     (DEG/KT/KT) (MB)    (FT/S)
NORTHPORT PIER   1840   33      20/  3/  6 1005.4F
SISTER BAY       1835   35      30/  5/  9   N/A
KEWAUNEE LAKESHO 1854   36      30/  5/  8 1004.3F
SHEBOYGAN LAKESH 1900   35      10/  9/ 10 1003.7F
PORT WASHINGTON  1830   37      40/  8/ 11 1005.1F
KENOSHA   LAKESH 1900   36        CALM     1004.4
$$

TC  - TEMPERATURE IN CELSIUS
VSB - VISIBILITY IN STATUTE MILES
WCI - WIND CHILL INDEX
HX  - HEAT INDEX





USA.gov is the U.S. government's official web portal to all federal, state and local government web resources and services.